Weather History for Visby Flygplats, Sweden

Change the Weather History Date:

Wednesday, February 6, 2013

  Actual Average Record
Temperature  
Mean Temperature 30 °F -  
Max Temperature 37 °F 34 °F - ()
Min Temperature 23 °F 25 °F - ()
Degree Days  
Heating Degree Days 35    
Moisture  
Dew Point 31 °F    
Average Humidity 95    
Maximum Humidity 100    
Minimum Humidity 81    
Precipitation  
Precipitation 0.00 in 0.04 in - ()
Sea Level Pressure  
Sea Level Pressure 29.28 in    
Wind  
Wind Speed 5 mph ()    
Max Wind Speed 10 mph    
Max Gust Speed -    
Visibility 6.1 miles    
Events Fog , Snow    
T = Trace of Precipitation, MM = Missing Value Source: Averaged Metar Reports

Daily Weather History Graph

Daily Weather History Graph

Search for Another Location

Airport:

Trip Planner

Search our weather history database for the weather conditions in past years. The results will help you decide how hot, cold, wet, or windy it might be!

Date:

Astronomy

Feb. 06, 2013 Rise Set
Actual Time 7:37 AM CET 4:24 PM CET
Civil Twilight 6:55 AM CET 5:06 PM CET
Nautical Twilight 6:09 AM CET 5:53 PM CET
Astronomical Twilight 5:23 AM CET 6:38 PM CET
Moon 4:31 AM CET (2/6) 11:55 AM CET (2/6)
Length of Visible Light 10h 11m
Length of Day
8h 46m
Waning Crescent, 19% of the Moon is Illuminated
Feb 6
Waning Crescent
Feb 10
New
Feb 17
First Quarter
Feb 25
Full
Mar 4
Last Quarter

Hourly Weather History & Observations

Time (CET) Temp. Windchill Dew Point Humidity Pressure Visibility Wind Dir Wind Speed Gust Speed Precip Events Conditions
12:00 AM 28 °F - 28 °F 98% 29.18 in 0 mi ESE 2.2 mph - - Fog Fog
12:20 AM 28.4 °F 24.6 °F 28.4 °F 100% 29.15 in 0.3 mi East 3.5 mph - N/A Fog Light Freezing Fog
12:50 AM 26.6 °F - 26.6 °F 100% 29.15 in - East 2.3 mph - N/A   Unknown
1:00 AM 26 °F - 26 °F 100% 29.18 in 0 mi East 2.2 mph - - Fog Fog
1:20 AM 26.6 °F - 26.6 °F 100% 29.15 in 0.2 mi Calm Calm - N/A Fog Light Freezing Fog
1:50 AM 24.8 °F - 24.8 °F 100% 29.18 in 0.2 mi South 1.2 mph - N/A   Partly Cloudy
2:00 AM 24 °F - 24 °F 100% 29.19 in 1 mi SW 2.2 mph - - Fog Fog
2:20 AM 24.8 °F - 24.8 °F 100% 29.18 in - SSW 2.3 mph - N/A   Partly Cloudy
2:50 AM 24.8 °F - 24.8 °F 100% 29.18 in - West 2.3 mph - N/A   Scattered Clouds
3:20 AM 26.6 °F - 26.6 °F 100% 29.18 in 6.2 mi WSW 1.2 mph - N/A   Mostly Cloudy
3:50 AM 30.2 °F 22.6 °F 30.2 °F 100% 29.18 in 6.2 mi West 8.1 mph - N/A   Mostly Cloudy
4:20 AM 32.0 °F 26.4 °F 32.0 °F 100% 29.18 in 6.2 mi West 5.8 mph - N/A   Mostly Cloudy
4:50 AM 32.0 °F 26.4 °F 30.2 °F 93% 29.21 in 6.2 mi West 5.8 mph - N/A   Partly Cloudy
5:00 AM 33 °F - 31 °F 92% 29.22 in 11 mi West 6.7 mph - -   Partly Cloudy
5:20 AM 32.0 °F 27.5 °F 32.0 °F 100% 29.21 in 6.2 mi West 4.6 mph - N/A   Mostly Cloudy
5:50 AM 32.0 °F 27.5 °F 30.2 °F 93% 29.21 in 6.2 mi West 4.6 mph - N/A   Mostly Cloudy
6:00 AM 33 °F - 31 °F 91% 29.22 in 14 mi WNW 2.2 mph - -   Mostly Cloudy
6:20 AM 32.0 °F 27.5 °F 30.2 °F 93% 29.21 in 6.2 mi West 4.6 mph - N/A   Mostly Cloudy
6:50 AM 32.0 °F 26.4 °F 30.2 °F 93% 29.21 in 6.2 mi WSW 5.8 mph - N/A   Mostly Cloudy
7:00 AM 32 °F - 31 °F 92% 29.24 in 16 mi WSW 6.7 mph - -   Overcast
7:20 AM 32.0 °F 26.4 °F 30.2 °F 93% 29.21 in 6.2 mi WSW 5.8 mph - N/A   Mostly Cloudy
7:50 AM 32.0 °F 27.5 °F 30.2 °F 93% 29.24 in 6.2 mi WSW 4.6 mph - N/A   Mostly Cloudy
8:00 AM 32 °F - 30 °F 89% 29.25 in 19 mi WSW 4.5 mph - -   Mostly Cloudy
8:20 AM 32.0 °F 27.5 °F 28.4 °F 87% 29.24 in 6.2 mi SW 4.6 mph - N/A   Scattered Clouds
8:50 AM 30.2 °F 24.3 °F 28.4 °F 93% 29.24 in 6.2 mi SSW 5.8 mph - N/A   Mostly Cloudy
9:00 AM 30 °F - 30 °F 98% 29.26 in 9 mi SSW 6.7 mph - -   Scattered Clouds
9:20 AM 30.2 °F 23.4 °F 30.2 °F 100% 29.24 in 6.2 mi SSW 6.9 mph - N/A   Scattered Clouds
9:50 AM 32.0 °F 27.5 °F 30.2 °F 93% 29.24 in 6.2 mi SSW 4.6 mph - N/A   Scattered Clouds
10:20 AM 33.8 °F 29.6 °F 32.0 °F 93% 29.27 in 6.2 mi SSW 4.6 mph - N/A   Mostly Cloudy
10:50 AM 33.8 °F 30.8 °F 32.0 °F 93% 29.27 in 6.2 mi SSW 3.5 mph - N/A   Mostly Cloudy
11:00 AM 34 °F - 32 °F 88% 29.29 in 12 mi South 4.5 mph - -   Overcast
11:20 AM 33.8 °F 28.6 °F 32.0 °F 93% 29.27 in 6.2 mi SSW 5.8 mph - N/A   Mostly Cloudy
11:50 AM 33.8 °F 27.7 °F 32.0 °F 93% 29.27 in 6.2 mi South 6.9 mph - N/A   Mostly Cloudy
12:00 PM 34 °F - 32 °F 91% 29.29 in 13 mi South 6.7 mph - -   Overcast
12:20 PM 33.8 °F 26.4 °F 32.0 °F 93% 29.27 in 6.2 mi South 9.2 mph - N/A   Mostly Cloudy
12:50 PM 35.6 °F 29.2 °F 33.8 °F 93% 29.27 in 6.2 mi South 8.1 mph - N/A   Mostly Cloudy
1:00 PM 35 °F - 32 °F 84% 29.30 in 25 mi South 8.9 mph - -   Partly Cloudy
1:20 PM 35.6 °F 28.0 °F 32.0 °F 87% 29.27 in 6.2 mi South 10.4 mph - N/A   Mostly Cloudy
1:50 PM 35.6 °F 29.2 °F 32.0 °F 87% 29.30 in 6.2 mi South 8.1 mph - N/A   Mostly Cloudy
2:00 PM 35 °F - 31 °F 81% 29.31 in 31 mi South 6.7 mph - -   Scattered Clouds
2:20 PM 33.8 °F 27.0 °F 32.0 °F 93% 29.30 in 6.2 mi South 8.1 mph - N/A   Mostly Cloudy
2:50 PM 33.8 °F 28.6 °F 32.0 °F 93% 29.30 in 6.2 mi SSE 5.8 mph - N/A   Mostly Cloudy
3:00 PM 33 °F - 32 °F 92% 29.32 in 31 mi South 8.9 mph - -   Scattered Clouds
3:20 PM 32.0 °F 25.6 °F 32.0 °F 100% 29.30 in 2.8 mi SSE 6.9 mph - N/A Snow Light Snow
3:50 PM 32.0 °F 24.8 °F 32.0 °F 100% 29.30 in 3.1 mi South 8.1 mph - N/A Snow Light Snow
4:20 PM 33.8 °F 27.0 °F 32.0 °F 93% 29.33 in 6.2 mi South 8.1 mph - N/A   Mostly Cloudy
4:50 PM 33.8 °F 27.0 °F 32.0 °F 93% 29.33 in 6.2 mi South 8.1 mph - N/A   Mostly Cloudy
5:00 PM 33 °F - 32 °F 92% 29.34 in 19 mi South 6.7 mph - -   Mostly Cloudy
5:20 PM 33.8 °F 29.6 °F 32.0 °F 93% 29.33 in 6.2 mi SSE 4.6 mph - N/A Snow Light Snow
5:50 PM 32.0 °F 24.8 °F 32.0 °F 100% 29.33 in 6.2 mi SE 8.1 mph - N/A   Mostly Cloudy
6:00 PM 33 °F - 32 °F 95% 29.35 in 10 mi SE 6.7 mph - - Snow Snow
6:20 PM 33.8 °F 27.0 °F 32.0 °F 93% 29.33 in 4.3 mi SE 8.1 mph - N/A Snow Light Snow
6:50 PM 33.8 °F 25.8 °F 32.0 °F 93% 29.36 in 6.2 mi SE 10.4 mph - N/A Snow Light Snow Grains
7:00 PM 33 °F - 32 °F 95% 29.37 in 4 mi SE 8.9 mph - - Snow Light Snow
7:20 PM 33.8 °F 26.4 °F 32.0 °F 93% 29.36 in 2.5 mi SE 9.2 mph - N/A Snow Light Snow Showers
7:50 PM 32.0 °F 24.2 °F 32.0 °F 100% 29.36 in 2.5 mi SE 9.2 mph - N/A Snow Light Snow Showers
8:00 PM 33 °F - 33 °F 97% 29.38 in 2 mi SE 8.9 mph - - Snow Light Snow
8:20 PM 33.8 °F 26.4 °F 32.0 °F 93% 29.36 in 5.0 mi SE 9.2 mph - N/A Snow Light Snow Showers
8:50 PM 33.8 °F 27.7 °F 32.0 °F 93% 29.36 in 3.7 mi SE 6.9 mph - N/A Snow Light Snow
9:00 PM 33 °F - 32 °F 96% 29.39 in 5 mi SSE 8.9 mph - - Snow Light Snow
9:20 PM 32.0 °F 23.6 °F 32.0 °F 100% 29.39 in 6.2 mi SSE 10.4 mph - N/A Snow Light Snow
9:50 PM 32.0 °F 24.2 °F 32.0 °F 100% 29.39 in 6.2 mi SSE 9.2 mph - N/A   Mostly Cloudy
10:20 PM 32.0 °F 25.6 °F 32.0 °F 100% 29.39 in 6.2 mi SE 6.9 mph - N/A   Mostly Cloudy
10:50 PM 32.0 °F 24.2 °F 32.0 °F 100% 29.39 in 6.2 mi SE 9.2 mph - N/A Snow Light Snow
11:00 PM 33 °F - 32 °F 96% 29.42 in 0 mi SE 8.9 mph - - Snow Light Snow
11:20 PM 32.0 °F 24.8 °F 32.0 °F 100% 29.42 in 3.1 mi SE 8.1 mph - N/A Snow Light Snow Showers
11:50 PM 32.0 °F 24.8 °F 32.0 °F 100% 29.42 in 6.2 mi SE 8.1 mph - N/A   Overcast